Willimantic, CT

6:25 AM EDT on October 16, 2019 (GMT -0400)
Windham

Weather History for KIJD - August, 2019

Change the Weather History Date:

Wednesday, August 7, 2019

  Actual Average Record
Temperature  
Mean Temperature 75 °F -  
Max Temperature 86 °F 82 °F 97 °F (2001)
Min Temperature 64 °F 57 °F 41 °F (1957)
Cooling Degree Days 10    
Growing Degree Days 25 (Base 50)    
Moisture  
Dew Point 69 °F    
Average Humidity 87    
Maximum Humidity 100    
Minimum Humidity 53    
Precipitation  
Precipitation 0.77 in - - ()
Sea Level Pressure  
Sea Level Pressure 29.84 in    
Wind  
Wind Speed 3 mph (South)    
Max Wind Speed 18 mph    
Max Gust Speed 25 mph    
Visibility 7 miles    
Events Fog , Rain , Thunderstorm    
Averages and records for this station are not official NWS values.
T = Trace of Precipitation, MM = Missing Value Source: NWS Daily Summary

Daily Weather History Graph

Daily Weather History Graph

Search for Another Location

Airport or City:

Astronomy

Aug. 07, 2019 Rise Set
Actual Time 5:48 AM EDT 7:59 PM EDT
Civil Twilight 5:17 AM EDT 8:30 PM EDT
Nautical Twilight 4:39 AM EDT 9:08 PM EDT
Astronomical Twilight 3:58 AM EDT 9:49 PM EDT
Moon 1:24 PM EDT (8/7) No Moon Set
Length of Visible Light 15h 12m
Length of Day
14h 11m
Waxing Crescent, 49% of the Moon is Illuminated
Aug 7
Waxing Crescent
Aug 7
First Quarter
Aug 15
Full
Aug 23
Last Quarter
Aug 30
New

Hourly Weather History & Observations

Time (EDT) Temp. Heat Index Dew Point Humidity Pressure Visibility Wind Dir Wind Speed Gust Speed Precip Events Conditions
12:52 AM 64.9 °F - 63.0 °F 93% 29.86 in 10.0 mi Calm Calm - N/A   Mostly Cloudy
1:52 AM 66.0 °F - 64.0 °F 93% 29.86 in 8.0 mi Calm Calm - N/A   Overcast
2:35 AM 66.9 °F - 66.0 °F 97% 29.87 in 1.8 mi Calm Calm - N/A   Overcast
2:47 AM 66.2 °F - 66.2 °F 100% 29.87 in 0.5 mi Calm Calm - N/A Fog Fog
2:52 AM 66.9 °F - 66.0 °F 97% 29.86 in 0.5 mi SSE 3.5 mph - N/A Fog Fog
3:14 AM 66.0 °F - 66.0 °F 100% 29.86 in 1.5 mi Calm Calm - N/A   Overcast
3:23 AM 66.0 °F - 66.0 °F 100% 29.86 in 2.5 mi Calm Calm - N/A   Overcast
3:40 AM 66.0 °F - 66.0 °F 100% 29.86 in 0.8 mi Calm Calm - N/A   Overcast
3:52 AM 66.0 °F - 66.0 °F 100% 29.86 in 0.8 mi Calm Calm - N/A   Overcast
3:59 AM 66.0 °F - 66.0 °F 100% 29.86 in 2.0 mi Calm Calm - N/A   Overcast
4:03 AM 66.0 °F - 66.0 °F 100% 29.86 in 3.0 mi Calm Calm - N/A   Overcast
4:52 AM 66.9 °F - 66.0 °F 97% 29.86 in 7.0 mi East 3.5 mph - N/A   Overcast
5:33 AM 66.9 °F - 66.0 °F 97% 29.87 in 7.0 mi Calm Calm - N/A   Overcast
5:52 AM 66.9 °F - 66.0 °F 97% 29.88 in 4.0 mi Calm Calm - N/A   Overcast
6:43 AM 68.0 °F - 66.9 °F 96% 29.88 in 5.0 mi Calm Calm - N/A   Overcast
6:52 AM 69.1 °F - 66.9 °F 93% 29.88 in 5.0 mi Calm Calm - N/A   Overcast
7:03 AM 69.1 °F - 66.9 °F 93% 29.89 in 5.0 mi Calm Calm - N/A   Overcast
7:52 AM 71.1 °F - 69.1 °F 93% 29.88 in 6.0 mi Calm Calm - N/A   Overcast
8:26 AM 72.0 °F - 69.1 °F 91% 29.89 in 8.0 mi SSW 4.6 mph - N/A   Overcast
8:52 AM 73.0 °F - 70.0 °F 90% 29.88 in 9.0 mi Calm Calm - N/A   Overcast
9:38 AM 75.9 °F - 71.1 °F 85% 29.88 in 10.0 mi South 6.9 mph - N/A   Overcast
9:52 AM 75.9 °F - 71.1 °F 85% 29.88 in 10.0 mi South 5.8 mph - N/A   Overcast
10:24 AM 78.1 °F - 72.0 °F 81% 29.88 in 10.0 mi SSW 6.9 mph - N/A   Overcast
10:52 AM 80.1 °F 83.6 °F 71.1 °F 74% 29.86 in 10.0 mi South 11.5 mph 17.3 mph N/A   Mostly Cloudy
10:59 AM 80.1 °F 83.6 °F 71.1 °F 74% 29.87 in 10.0 mi South 9.2 mph - N/A   Scattered Clouds
11:13 AM 82.0 °F 86.7 °F 72.0 °F 71% 29.86 in 10.0 mi SSW 12.7 mph 18.4 mph N/A   Mostly Cloudy
11:20 AM 81.0 °F 84.9 °F 71.1 °F 72% 29.86 in 10.0 mi South 13.8 mph - N/A   Scattered Clouds
11:28 AM 81.0 °F 84.9 °F 71.1 °F 72% 29.86 in 10.0 mi SSW 12.7 mph 19.6 mph N/A   Mostly Cloudy
11:52 AM 82.0 °F 86.3 °F 71.1 °F 69% 29.85 in 10.0 mi South 15.0 mph 21.9 mph N/A   Mostly Cloudy
12:52 PM 84.9 °F 88.2 °F 68.0 °F 57% 29.84 in 10.0 mi South 18.4 mph 25.3 mph N/A   Scattered Clouds
1:52 PM 86.0 °F 88.8 °F 66.9 °F 53% 29.83 in 10.0 mi SW 15.0 mph - N/A   Partly Cloudy
2:52 PM 84.0 °F 86.5 °F 66.9 °F 56% 29.81 in 10.0 mi SSW 11.5 mph 20.7 mph N/A   Scattered Clouds
3:52 PM 84.0 °F 86.3 °F 66.0 °F 55% 29.81 in 10.0 mi SSW 12.7 mph - N/A   Mostly Cloudy
4:52 PM 80.1 °F 82.9 °F 69.1 °F 69% 29.80 in 10.0 mi South 12.7 mph - N/A   Overcast
5:52 PM 79.0 °F - 68.0 °F 69% 29.81 in 10.0 mi SSE 9.2 mph - N/A   Overcast
6:32 PM 78.1 °F - 68.0 °F 71% 29.82 in 10.0 mi SSE 8.1 mph - N/A Thunderstorm Overcast
6:47 PM 75.2 °F - 69.8 °F 83% 29.81 in 10.0 mi SSE 6.9 mph - N/A Thunderstorm Thunderstorm
6:52 PM 73.9 °F - 70.0 °F 87% 29.81 in 10.0 mi South 4.6 mph - N/A Thunderstorm Thunderstorm
7:03 PM 73.9 °F - 70.0 °F 87% 29.82 in 10.0 mi West 5.8 mph - N/A Thunderstorm Thunderstorm
7:11 PM 75.0 °F - 69.1 °F 82% 29.81 in 10.0 mi Calm Calm - N/A Thunderstorm Overcast
7:24 PM 75.9 °F - 68.0 °F 76% 29.81 in 10.0 mi Calm Calm - N/A Thunderstorm Thunderstorm
7:39 PM 75.0 °F - 69.1 °F 82% 29.81 in 10.0 mi Calm Calm - N/A Thunderstorm Overcast
7:48 PM 75.2 °F - 69.8 °F 83% 29.81 in 10.0 mi Calm Calm - N/A   Overcast
7:52 PM 75.0 °F - 69.1 °F 82% 29.81 in 4.0 mi East 3.5 mph - 0.05 in Rain Light Rain
8:33 PM 73.0 °F - 71.1 °F 93% 29.81 in 10.0 mi South 4.6 mph - 0.06 in Thunderstorm Overcast
8:48 PM 73.4 °F - 71.6 °F 94% 29.82 in 10.0 mi South 4.6 mph - 0.06 in   Overcast
8:52 PM 73.0 °F - 71.1 °F 93% 29.81 in 10.0 mi South 5.8 mph - 0.06 in   Overcast
8:59 PM 73.0 °F - 71.1 °F 93% 29.81 in 10.0 mi SSE 4.6 mph - N/A Thunderstorm Overcast
9:28 PM 73.0 °F - 71.1 °F 93% 29.84 in 1.5 mi North - - 0.19 in Rain , Thunderstorm Heavy Thunderstorms and Rain
9:39 PM 71.1 °F - 69.1 °F 93% 29.84 in 2.0 mi Variable 4.6 mph 18.4 mph 0.27 in Rain , Thunderstorm Heavy Thunderstorms and Rain
9:44 PM 71.1 °F - 69.1 °F 93% 29.84 in 1.5 mi Calm Calm - 0.36 in Rain , Thunderstorm Heavy Rain
9:52 PM 71.1 °F - 69.1 °F 93% 29.83 in 1.8 mi Calm Calm - 0.42 in Rain , Thunderstorm Heavy Rain
10:00 PM 70.0 °F - 69.1 °F 97% 29.82 in 2.0 mi NNE 6.9 mph - 0.08 in Rain , Thunderstorm Heavy Thunderstorms and Rain
10:15 PM 70.0 °F - 69.1 °F 97% 29.80 in 2.5 mi NE 6.9 mph - 0.21 in Rain , Thunderstorm Heavy Rain
10:18 PM 70.0 °F - 69.1 °F 97% 29.81 in 4.0 mi ENE 6.9 mph - 0.21 in Rain Light Rain
10:52 PM 70.0 °F - 69.1 °F 97% 29.78 in 10.0 mi Calm Calm - 0.23 in Rain Light Rain
10:59 PM 70.0 °F - 69.1 °F 97% 29.79 in 9.0 mi Calm Calm - 0.00 in Rain , Thunderstorm Light Rain
11:16 PM 70.0 °F - 69.1 °F 97% 29.79 in 10.0 mi Calm Calm - 0.01 in Rain Light Rain
11:29 PM 70.0 °F - 69.1 °F 97% 29.79 in 9.0 mi Calm Calm - 0.01 in Rain Light Rain
11:52 PM 70.0 °F - 69.1 °F 97% 29.77 in 10.0 mi SE 4.6 mph - 0.01 in   Mostly Cloudy